GFSNGP_prec_cloud_057.txt.gz
Cloud_Cover
0 0 0 0 0 0 0 0 0 0 0 0 100 100 97 100 100 100 100 69 100 100 100 100 96 93 100 92 5 0 0 0 0 0 0 0 0 0 0 0 0 0 0 0
0 0 0 0 0 0 0 0 0 0 0 0 3 96 86 81 99 100 100 56 64 100 100 100 100 100 100 100 100 30 0 0 0 0 0 0 0 0 0 0 0 0 0 0
1 3 4 1 0 0 0 0 0 0 0 0 0 1 13 97 100 100 100 67 67 98 100 100 100 100 100 100 41 87 5 4 0 0 0 0 0 0 0 0 0 0 0 0
15 95 51 0 2 0 0 0 0 0 0 0 0 0 4 5 88 100 100 100 5 30 98 100 100 100 100 100 100 79 55 42 0 0 0 0 0 0 0 0 0 0 0 0
84 78 1 0 0 2 0 0 0 0 0 0 0 0 0 35 80 94 70 95 2 0 100 100 100 100 100 100 100 100 100 100 84 0 0 0 0 0 0 0 0 0 0 0
100 96 4 0 24 86 95 0 0 3 0 0 0 0 0 38 27 100 100 90 5 0 43 100 100 100 100 100 100 100 100 100 96 4 0 0 0 0 0 0 0 0 0 0
96 100 52 20 11 91 39 6 0 0 0 0 0 0 0 17 100 100 100 67 9 16 4 94 98 44 83 100 100 100 100 100 84 16 4 0 0 0 0 0 0 0 0 0
100 100 87 31 8 64 73 0 7 0 0 0 0 0 0 0 84 100 98 100 91 6 17 24 85 70 100 100 100 100 100 100 52 3 5 4 0 0 0 0 0 0 0 0
100 100 41 30 55 17 28 93 62 63 3 0 0 0 0 0 7 100 10 7 100 98 74 21 5 5 54 100 100 100 99 89 91 5 2 5 0 0 0 0 0 0 0 0
100 100 82 47 95 67 19 98 26 0 28 95 67 0 0 0 0 20 49 5 92 100 100 53 85 28 71 95 100 100 100 100 88 1 0 0 0 0 0 0 0 0 1 9
100 99 100 100 100 100 100 100 100 100 34 0 33 2 1 11 30 76 69 85 100 100 100 99 100 79 95 70 74 48 3 4 17 0 0 0 0 0 0 0 0 0 0 0
100 100 100 100 100 100 100 100 100 100 100 100 100 96 90 81 100 100 92 94 98 78 100 44 100 93 82 100 100 100 86 0 0 0 0 0 0 47 100 86 91 44 0 0
100 100 100 100 100 100 100 100 100 100 100 100 100 100 90 74 100 86 100 100 100 97 97 100 100 100 99 100 100 100 99 34 0 0 5 2 0 0 9 100 100 100 100 95
100 100 100 100 100 100 100 100 100 100 100 100 100 100 100 100 100 100 100 100 98 100 100 100 100 100 100 100 100 100 100 72 1 1 0 5 0 0 0 52 48 99 100 95
100 100 100 100 100 100 100 100 100 100 100 100 100 100 100 100 100 100 98 91 50 23 35 100 100 100 94 100 100 100 100 57 73 99 55 1 0 0 1 0 1 20 100 100
100 100 100 100 100 100 100 100 100 100 100 100 100 100 100 100 100 100 74 28 66 66 50 100 100 100 100 100 100 100 100 97 90 46 21 23 2 3 47 31 30 94 92 100
96 100 100 100 100 100 100 100 100 100 100 100 100 100 100 100 100 100 100 56 35 25 46 57 76 100 100 100 100 100 100 100 72 100 74 10 26 63 100 100 100 100 100 100
89 68 100 100 100 100 100 100 100 100 100 100 100 100 100 100 100 100 100 100 67 91 61 86 97 100 100 100 100 100 100 100 100 95 95 83 95 100 100 100 100 100 100 100
89 12 99 100 100 100 100 100 100 100 100 100 100 100 100 100 100 100 100 100 100 100 100 100 100 100 92 100 100 100 100 92 100 100 100 95 100 100 100 100 100 100 100 100
5 5 47 100 100 100 100 100 100 100 100 100 100 100 100 100 100 100 100 100 100 100 100 100 100 100 100 100 100 100 100 100 100 100 100 100 100 100 100 100 100 100 100 100
5 64 23 54 94 100 100 100 100 100 100 100 100 100 100 100 100 100 100 100 100 100 100 100 100 100 100 100 100 100 100 100 100 100 100 100 100 100 100 100 100 100 100 100
76 2 5 40 64 71 100 100 100 100 100 100 100 100 100 100 100 100 100 100 100 100 100 100 100 100 100 100 100 100 100 100 100 100 100 100 100 100 100 100 100 100 100 100
93 37 12 66 55 56 91 100 100 100 100 100 100 100 100 100 100 100 100 100 100 100 100 100 100 100 100 100 100 100 100 100 99 100 100 100 100 100 100 100 100 100 100 100
33 62 47 43 60 100 31 82 100 100 100 100 100 100 100 100 100 100 100 100 100 100 100 100 100 100 100 100 100 100 100 100 100 100 100 100 97 100 100 100 100 100 100 100
95 64 97 94 77 8 50 12 91 100 100 100 100 100 100 100 100 100 100 100 100 100 100 100 100 100 100 100 100 100 100 100 100 100 100 98 92 81 100 100 100 100 100 100
5 45 100 100 100 94 11 4 3 17 92 100 100 100 100 100 100 100 100 100 100 100 100 100 100 100 100 100 100 100 100 100 100 100 100 100 100 100 100 100 100 100 100 100
20 13 100 100 100 100 91 5 5 37 34 78 98 100 100 100 100 100 100 100 100 100 90 100 100 100 100 100 100 99 100 100 100 100 100 100 100 100 100 100 100 100 100 100

GFSNGP_prec_cloud_060.txt.gz
Cloud_Cover
0 0 3 92 13 0 0 0 0 0 51 2 0 5 3 28 0 0 0 73 100 100 100 99 100 99 100 99 5 32 5 0 0 0 0 0 0 0 0 0 0 0 0 0
5 0 0 1 70 60 0 0 0 0 1 0 4 0 1 2 4 0 0 100 100 100 100 100 94 58 100 100 51 5 5 2 0 0 0 0 0 0 0 0 0 0 0 0
3 0 0 0 0 95 7 1 0 0 0 0 4 0 2 2 77 5 3 100 100 100 100 99 92 98 100 98 100 100 100 100 50 0 0 0 0 0 0 0 0 0 0 0
40 5 16 0 0 0 2 61 4 0 0 0 0 5 3 23 40 86 26 100 100 100 100 100 100 99 47 34 100 98 100 100 100 84 0 0 0 0 0 0 0 0 0 0
92 5 1 0 0 0 0 0 2 0 0 0 0 0 0 51 100 100 96 98 100 100 100 100 99 100 98 100 100 100 100 100 55 100 0 4 37 0 0 0 0 0 0 0
89 46 47 64 0 0 0 0 12 4 0 0 22 0 0 2 100 100 100 95 87 100 98 100 100 100 100 100 100 100 100 100 100 100 100 5 94 100 0 0 0 0 0 0
98 93 70 60 9 23 43 21 0 34 5 3 72 2 0 0 62 100 100 100 62 78 35 100 100 100 100 100 100 100 100 100 100 100 100 96 100 100 88 0 0 0 0 0
100 91 92 62 88 72 21 27 87 60 46 66 86 49 0 0 0 72 100 100 99 98 24 99 100 100 100 100 100 100 100 100 100 100 100 100 100 100 97 0 0 0 0 0
83 5 21 5 36 46 94 100 100 100 100 100 100 99 1 0 0 0 39 100 100 100 98 81 100 100 100 100 58 100 100 100 100 100 100 100 100 100 100 9 0 0 0 0
80 97 72 21 28 90 100 100 100 100 100 98 100 88 6 0 0 0 0 2 99 100 100 99 99 100 100 76 100 100 100 100 100 100 100 100 100 81 53 1 0 0 0 0
99 50 100 100 100 100 100 99 100 100 100 100 100 80 38 75 30 58 51 0 3 23 68 96 92 97 72 91 100 100 100 100 100 100 100 100 100 100 27 3 0 0 0 3
100 92 100 100 100 100 100 100 100 100 100 100 100 100 100 100 100 23 0 4 29 10 100 48 99 100 32 100 100 100 100 100 98 97 100 100 100 100 100 86 54 10 2 0
99 100 100 100 100 100 100 100 100 100 100 100 100 100 100 100 99 100 48 28 40 61 19 100 71 100 100 100 100 100 100 100 100 100 100 100 99 70 100 100 100 100 100 80
5 36 100 100 100 100 96 100 100 100 100 100 100 100 100 100 100 100 100 100 100 100 16 79 98 100 100 100 99 100 100 100 100 100 100 86 54 100 29 11 45 31 98 88
4 6 77 100 100 100 100 100 96 100 100 100 100 100 100 88 100 100 100 100 100 59 68 100 100 100 92 86 88 100 100 100 100 100 100 100 100 100 100 100 32 13 100 100
5 5 5 56 100 96 100 100 92 100 100 100 100 100 100 100 100 100 100 100 100 100 100 100 47 7 100 85 41 100 100 100 100 100 62 42 100 100 100 100 26 92 100 100
8 65 98 5 20 100 100 100 100 100 100 100 100 100 100 100 100 100 100 100 100 100 100 100 100 92 76 100 86 100 100 100 100 100 53 67 22 67 98 29 61 100 100 100
46 42 4 5 7 100 100 100 100 100 100 100 100 100 100 100 100 100 100 100 100 100 100 100 100 100 86 100 100 100 100 100 100 100 100 75 60 74 75 99 100 100 100 100
66 46 5 5 6 90 100 100 100 100 100 100 100 100 100 100 100 100 100 100 100 100 100 100 100 98 100 100 100 100 100 100 100 100 100 100 100 100 100 100 100 100 100 100
66 5 5 3 5 76 100 100 100 100 100 100 100 100 100 100 100 100 100 100 100 100 100 100 100 100 100 100 86 100 100 100 100 100 100 100 100 100 100 100 100 100 100 100
5 5 5 16 5 100 100 100 100 100 100 100 100 100 100 100 100 100 100 100 100 100 100 100 100 100 100 99 100 100 100 100 100 100 100 100 100 100 100 100 100 100 100 100
5 5 4 5 52 18 86 100 100 100 100 100 100 100 100 100 100 100 100 100 100 100 100 100 100 100 100 100 100 100 100 100 100 100 100 100 100 100 100 100 100 100 100 100
6 19 6 5 11 5 5 89 100 100 100 100 100 100 100 100 100 100 100 100 100 100 100 100 100 99 100 100 100 100 100 100 100 100 100 100 100 100 100 100 100 100 100 100
27 5 4 28 5 56 5 5 17 100 100 100 100 100 100 100 100 100 100 100 100 100 100 100 100 100 100 100 100 100 100 100 100 100 100 100 100 100 100 100 100 100 100 100
96 44 6 19 9 5 5 4 5 33 100 100 100 100 100 100 100 100 100 100 100 100 100 100 100 100 100 100 100 100 100 100 100 100 100 100 100 100 100 100 100 100 100 100
97 89 98 55 5 18 12 5 5 5 90 100 100 100 100 100 100 100 100 100 100 100 100 100 100 100 100 100 100 100 100 100 100 100 100 100 100 100 100 100 100 100 100 100
100 65 63 53 92 100 43 7 0 5 15 88 100 100 100 100 100 100 100 100 100 100 100 100 100 100 100 100 100 100 100 100 100 100 100 100 100 100 100 100 100 100 100 100

GFSNGP_prec_cloud_063.txt.gz
Cloud_Cover
5 0 0 4 5 1 0 0 0 0 0 2 0 0 0 0 0 0 49 100 100 100 100 100 97 100 94 0 0 0 0 0 0 0 0 0 0 0 0 0 0 0 0 0
64 10 0 0 2 4 5 1 0 0 0 3 4 0 0 0 0 0 0 92 100 100 100 100 100 100 86 0 6 0 0 0 0 0 0 0 0 0 0 0 0 0 0 0
4 59 11 3 0 14 65 5 0 0 0 0 3 1 0 0 0 0 0 0 91 100 100 100 95 93 25 46 100 95 0 3 0 0 0 0 0 0 0 0 0 0 0 0
4 0 4 4 5 1 19 72 5 0 0 0 0 0 0 0 0 0 4 0 10 99 100 100 100 100 53 12 100 100 94 3 0 0 0 0 0 0 0 0 0 0 0 0
5 30 1 0 0 0 0 2 60 8 7 20 0 0 0 0 0 0 3 3 0 71 100 100 100 100 73 64 87 100 100 79 38 5 4 0 0 0 0 0 0 0 0 0
60 14 44 3 4 0 0 51 0 5 8 80 86 0 0 0 0 0 10 27 5 12 100 95 92 100 100 91 100 27 59 47 72 82 56 62 1 0 0 0 0 0 0 0
97 93 30 6 4 4 15 30 25 65 67 71 100 43 0 0 0 0 26 98 54 73 76 87 100 86 97 100 100 100 86 87 99 100 60 97 40 16 100 100 14 0 0 0
100 76 41 8 11 5 6 5 49 100 100 100 100 100 100 15 20 0 0 14 99 63 99 100 100 74 35 100 100 100 100 88 85 97 90 100 100 100 100 100 100 29 0 0
5 5 5 4 3 39 100 100 97 100 100 100 100 100 100 15 75 37 0 2 6 100 100 100 100 100 78 99 100 100 100 78 100 99 99 99 64 90 100 100 100 100 96 5
100 100 31 8 5 5 8 47 100 100 100 100 100 100 97 100 100 100 100 60 6 48 94 100 100 100 94 61 100 88 100 100 100 100 100 90 70 100 100 97 100 100 23 93
76 11 87 100 100 14 25 60 97 100 100 100 100 100 100 100 100 100 100 80 13 0 0 80 100 100 100 13 100 100 68 100 100 100 100 100 59 95 98 72 77 100 69 99
23 10 27 5 70 100 100 58 91 100 50 100 100 100 100 100 100 99 96 100 100 55 0 0 66 100 100 100 100 90 65 98 100 100 100 100 100 73 100 100 86 100 99 100
5 5 5 5 5 100 100 100 100 87 100 100 100 100 100 100 100 69 92 100 100 100 42 56 34 58 99 73 100 100 73 50 100 100 100 99 100 100 98 100 100 100 100 100
0 4 0 5 5 8 67 100 100 100 99 100 100 100 100 100 100 100 52 99 100 100 100 100 100 90 41 37 36 69 100 76 100 100 100 100 100 100 100 99 100 100 100 100
4 2 0 5 5 32 5 100 98 83 86 64 99 100 100 100 100 100 100 100 100 100 100 100 60 94 79 44 25 42 41 81 100 100 100 100 100 100 100 100 100 100 93 100
5 5 5 2 0 16 40 7 100 100 80 97 100 100 100 100 100 100 100 100 100 100 97 100 100 98 32 56 98 98 38 24 85 100 100 100 100 100 100 100 100 100 100 100
5 10 4 0 0 4 5 71 65 89 100 93 96 100 100 100 100 100 100 100 100 80 100 99 100 100 100 100 100 100 91 77 96 100 100 100 100 100 100 100 100 100 100 100
5 88 88 5 4 2 5 87 67 99 100 100 89 100 100 100 100 100 100 100 100 100 100 100 100 100 100 100 100 100 100 100 100 100 100 100 100 100 100 100 100 100 100 100
100 25 18 5 1 4 68 5 78 96 100 100 98 100 100 100 100 100 100 100 100 100 100 100 100 100 100 100 100 100 100 100 100 100 100 100 100 100 100 100 100 100 100 100
28 13 5 11 2 5 84 59 45 92 100 100 100 100 100 100 100 100 100 100 100 100 100 100 100 100 100 100 100 100 100 100 100 100 100 100 100 100 100 100 100 100 100 100
5 8 23 21 4 5 5 5 96 100 82 100 100 100 100 100 100 100 100 100 100 100 100 100 100 100 100 100 100 100 100 100 100 100 100 100 100 100 100 100 100 100 100 100
3 12 87 30 8 5 5 5 44 100 73 100 100 100 100 100 100 100 100 100 100 100 100 100 100 100 100 100 100 100 100 100 100 100 100 100 100 100 100 100 100 100 100 100
46 79 100 99 34 5 5 5 2 92 74 72 100 100 100 100 100 100 100 100 100 100 100 100 100 100 100 100 100 100 99 100 100 100 100 100 100 100 100 100 100 100 100 100
100 100 100 30 74 63 4 4 0 55 95 58 100 100 100 100 100 100 100 100 100 100 100 100 100 100 100 100 100 100 97 93 90 100 100 100 100 100 100 100 100 100 100 100
100 100 100 100 72 82 82 5 5 5 14 90 100 100 100 100 100 100 100 100 100 100 100 100 100 100 100 100 100 100 100 89 100 100 100 100 100 100 100 100 100 100 100 100
100 100 100 100 99 98 100 18 5 24 4 30 100 100 100 100 100 100 100 100 100 100 100 100 100 100 100 100 100 100 99 100 100 100 100 100 100 100 100 100 100 100 100 100
21 88 100 100 100 100 100 100 21 5 24 23 19 100 100 100 100 100 100 100 100 100 100 100 100 100 100 100 100 100 100 100 100 100 100 100 100 100 100 100 100 100 100 100

GFSNGP_prec_cloud_069.txt.gz
Cloud_Cover
66 22 5 0 2 0 0 0 0 0 0 0 0 0 0 0 0 87 100 100 100 100 100 100 100 100 82 100 99 100 100 80 2 0 23 100 98 23 0 0 0 0 0 0
71 74 16 5 21 0 5 3 0 0 0 0 0 0 0 0 0 0 0 92 100 100 100 100 100 100 100 100 100 100 100 100 1 0 0 0 5 98 97 2 0 0 0 0
5 5 5 0 0 2 4 5 5 3 0 0 0 0 0 0 0 0 0 0 27 100 100 100 100 100 100 99 100 100 100 100 100 23 3 0 0 0 0 3 0 0 0 0
0 0 2 3 1 0 0 0 0 0 0 0 0 0 0 0 0 0 0 0 0 5 35 100 100 100 93 96 94 100 100 100 100 100 43 26 28 5 0 0 0 0 0 0
0 0 0 0 0 0 0 12 15 0 0 0 0 0 0 0 0 0 0 0 0 0 0 1 68 100 100 100 100 95 100 100 100 100 98 18 50 18 3 1 0 0 0 0
1 0 0 0 0 0 0 0 31 0 0 0 0 0 0 0 0 0 0 0 0 0 0 0 0 20 74 100 100 99 100 100 100 100 100 100 56 29 50 68 28 3 0 0
5 5 4 0 0 0 3 21 0 1 4 2 1 0 0 0 0 0 0 0 0 0 0 0 0 0 32 100 100 100 93 100 100 100 100 100 24 86 91 84 73 54 34 2
70 39 4 1 4 4 1 0 0 5 5 5 4 5 1 0 0 0 0 0 0 0 0 0 0 0 0 1 82 100 100 93 100 100 99 100 100 12 53 64 70 63 73 69
4 0 0 0 0 0 0 0 1 2 5 5 5 5 5 5 0 4 44 31 44 29 10 0 1 6 0 2 5 46 100 100 99 100 96 100 100 38 6 42 98 70 89 99
3 0 0 5 11 0 0 0 0 4 5 5 29 12 5 10 77 58 99 100 100 100 67 41 2 17 1 0 38 24 25 98 100 84 99 99 100 52 57 8 30 100 85 68
5 28 14 5 55 90 8 4 2 0 4 7 18 11 26 59 97 100 90 100 100 100 100 78 95 25 17 0 4 42 10 89 37 100 99 92 100 98 65 76 32 13 31 62
5 5 5 2 0 2 5 5 5 2 0 2 19 5 13 29 30 15 46 100 100 100 100 81 79 99 13 11 45 98 63 7 100 78 100 73 100 92 100 99 98 93 94 53
5 0 0 0 0 0 0 0 0 0 0 0 0 5 22 78 100 100 99 68 100 100 100 81 100 100 97 58 94 68 100 85 92 100 100 100 73 100 99 100 100 100 100 100
5 5 7 12 2 0 0 0 0 0 0 0 5 6 57 61 58 100 95 100 100 100 100 100 100 100 100 99 100 98 100 100 99 100 100 100 100 100 24 47 75 92 87 94
55 19 6 17 5 6 0 0 0 0 0 3 5 6 10 16 28 90 75 95 100 100 100 100 100 100 100 98 100 100 100 100 100 100 100 98 100 100 98 12 83 100 92 100
77 16 7 44 100 13 4 0 0 0 0 0 5 5 3 0 42 76 60 98 100 100 100 100 100 100 100 98 63 100 100 100 100 100 68 97 100 98 100 86 93 100 100 100
100 68 100 100 14 11 7 2 0 0 0 1 3 5 5 3 75 100 100 86 100 100 100 100 100 100 100 100 100 100 100 100 100 100 100 100 100 100 100 100 100 65 100 98
92 78 86 100 100 94 7 0 0 1 3 5 5 5 5 45 42 50 28 60 99 100 100 100 100 100 100 100 100 100 100 100 100 100 100 100 100 100 100 100 76 100 100 100
4 3 5 5 5 5 5 4 5 5 5 5 5 5 0 45 52 70 85 100 100 100 100 100 100 100 100 100 100 100 100 100 100 100 100 100 100 100 100 100 100 100 100 99
47 21 5 5 5 3 5 5 1 63 7 5 5 5 0 56 45 70 69 39 100 100 100 100 100 100 100 100 100 100 100 100 100 100 100 100 100 100 100 100 100 100 100 100
100 98 55 5 16 61 6 67 76 100 100 5 5 3 4 14 68 80 99 100 55 100 100 100 100 100 100 100 100 100 100 100 100 100 100 100 100 100 100 100 100 100 100 94
42 74 100 99 56 73 100 100 99 100 16 5 4 0 5 5 5 11 88 100 98 99 100 100 100 100 100 100 100 100 100 100 100 100 100 100 100 100 100 100 100 100 100 100
3 8 69 100 83 100 100 100 93 46 5 5 0 4 5 5 35 32 10 100 100 64 100 100 100 100 100 100 100 100 100 100 100 100 100 100 100 100 100 100 100 100 100 100
58 85 71 90 86 97 99 100 100 100 92 19 5 5 5 5 20 32 82 100 100 93 92 100 100 100 100 100 100 100 100 100 100 100 100 100 100 100 100 100 100 100 100 100
51 43 7 12 96 100 91 100 100 100 100 100 75 5 5 5 30 72 99 100 100 100 89 92 100 100 100 100 100 100 100 100 100 100 100 100 100 100 100 100 100 100 100 100
44 48 52 90 100 100 100 100 100 100 100 100 53 5 5 5 56 77 94 100 100 100 100 97 100 100 100 100 100 100 100 100 100 100 100 100 100 100 100 100 100 100 100 100
35 10 47 79 92 100 100 100 100 100 100 93 49 5 5 5 61 74 98 100 100 100 100 100 96 100 100 100 100 100 100 100 100 100 100 100 100 100 100 100 100 100 100 100

GFSNGP_prec_cloud_072.txt.gz
Cloud_Cover
100 98 100 16 0 0 0 0 2 46 0 0 0 0 0 2 98 100 100 100 100 100 100 100 100 95 99 100 100 99 75 100 82 2 13 0 0 0 3 0 0 0 0 0
99 100 100 100 54 0 0 0 0 0 0 0 0 0 0 0 0 1 98 100 100 100 100 100 100 100 100 100 100 100 100 100 100 100 95 28 11 0 0 8 7 0 0 0
6 100 100 100 100 100 100 100 4 1 0 0 0 0 0 0 0 0 0 0 52 100 100 89 99 90 100 100 99 100 100 100 100 100 100 100 81 53 4 0 0 0 0 0
0 3 94 99 100 100 83 73 31 5 0 0 0 0 0 0 0 0 0 0 0 0 91 100 100 99 40 36 71 100 100 100 99 92 100 84 100 100 93 57 25 2 0 0
0 0 0 2 46 57 26 13 5 4 4 0 0 0 0 0 0 0 0 0 0 0 0 1 55 98 100 100 99 95 100 98 100 100 100 100 100 70 32 100 99 49 19 3
5 4 0 0 0 0 5 5 1 0 0 0 0 0 0 0 0 0 0 0 0 0 0 0 0 0 69 98 74 100 100 100 100 100 100 100 100 100 100 75 6 53 87 39
27 5 5 2 0 0 0 5 5 3 0 0 0 0 0 0 0 0 0 0 0 0 0 0 0 0 0 0 1 46 73 92 97 100 100 100 99 100 100 98 10 22 11 97
8 63 21 4 0 2 1 0 0 0 0 0 0 0 3 0 0 2 0 0 0 0 0 0 0 0 0 0 0 22 97 99 36 100 95 100 100 100 81 100 100 15 6 34
8 19 2 4 5 0 0 0 0 0 0 0 0 3 5 2 5 0 0 0 0 0 0 0 0 0 0 0 0 0 0 43 97 96 100 100 43 98 99 89 65 11 5 4
0 0 0 1 0 0 0 0 0 0 0 0 5 5 5 5 5 5 5 6 8 24 7 9 24 19 8 11 15 3 0 1 2 0 97 9 100 93 61 46 98 68 27 92
4 1 0 0 0 0 0 0 0 1 3 5 5 5 5 5 5 5 16 81 98 92 96 45 38 96 100 16 11 5 0 0 0 0 6 94 69 100 98 42 47 100 81 83
5 4 0 0 0 0 1 0 0 4 2 5 5 10 26 18 28 25 8 73 100 100 98 70 53 44 95 99 67 30 30 0 0 0 0 0 1 8 74 99 20 100 56 50
5 2 0 0 5 3 2 2 4 3 5 5 5 5 5 84 22 3 26 85 100 74 65 100 83 77 100 100 97 100 100 96 23 27 0 0 0 1 9 37 75 100 100 100
5 5 2 0 0 0 0 3 1 0 2 0 19 42 58 40 7 6 5 27 66 86 94 98 89 93 100 100 93 100 100 100 100 23 33 78 22 2 2 49 50 49 32 100
39 5 24 30 4 5 2 0 5 3 3 3 48 89 100 65 13 5 54 99 66 99 100 93 100 95 100 100 100 100 100 100 100 98 60 73 100 68 5 3 5 8 5 82
100 96 86 100 100 37 5 4 4 12 5 11 18 44 56 59 27 21 88 100 100 100 100 100 100 100 100 100 100 100 100 100 100 90 87 97 34 51 2 19 58 5 5 68
100 100 100 97 81 90 96 55 70 6 3 2 4 36 19 30 6 52 89 99 100 100 99 98 82 100 100 100 100 100 100 100 100 100 74 100 99 74 22 21 22 82 19 49
100 100 100 80 44 81 94 96 89 8 4 4 4 5 46 35 26 74 100 88 97 70 99 92 100 100 100 100 100 100 100 100 100 100 100 100 89 100 100 99 14 45 100 100
5 5 59 100 100 77 70 95 99 44 5 11 0 34 43 5 23 77 100 90 58 58 40 61 79 98 98 100 100 100 100 100 100 100 100 100 100 100 100 100 97 23 100 100
11 38 33 57 94 62 28 32 42 90 41 34 5 23 42 17 18 13 95 80 36 100 56 89 100 100 100 100 100 100 100 100 100 100 100 100 100 100 100 100 100 16 16 66
10 8 5 5 17 33 16 65 42 90 83 6 5 13 7 5 9 20 87 54 19 36 27 89 100 100 100 100 100 100 100 100 100 100 100 100 100 100 100 100 100 100 94 52
8 14 5 22 14 19 65 100 93 100 100 87 27 86 44 13 39 50 27 34 58 6 68 41 100 100 100 100 100 100 100 100 100 100 100 100 100 100 100 100 100 100 100 100
84 71 49 73 85 22 67 100 100 100 95 94 100 100 10 62 32 25 66 23 6 14 74 27 99 85 100 100 100 100 100 100 100 100 100 100 100 100 100 100 100 100 100 100
6 81 28 28 13 40 100 78 100 100 95 100 100 87 8 84 92 97 100 7 5 18 92 87 53 100 97 100 100 100 100 100 100 100 100 100 100 100 100 100 100 100 100 100
28 60 66 96 100 61 85 91 99 87 100 100 94 100 100 97 99 97 80 97 20 83 93 100 80 84 100 100 100 100 100 100 100 100 100 100 100 100 100 100 100 100 100 100
4 5 17 68 76 100 100 100 100 94 100 100 100 100 100 100 100 88 99 93 80 94 99 100 100 100 100 100 100 100 100 100 100 100 100 100 100 100 100 100 100 100 100 100
95 12 16 94 90 100 100 100 100 100 100 100 100 100 92 81 84 88 79 100 100 100 100 100 100 100 100 100 100 100 100 100 100 100 100 100 100 100 100 100 100 100 100 100

GFSNGP_prec_cloud_075.txt.gz
Cloud_Cover
54 5 21 88 4 0 0 0 100 100 20 1 1 0 14 96 92 100 95 100 84 69 99 100 100 96 100 97 75 76 100 100 80 62 13 44 25 29 3 22 0 0 0 0
79 10 89 73 1 0 0 2 4 100 100 61 0 0 0 1 97 94 89 100 98 100 63 100 100 100 100 100 100 100 100 86 98 9 92 76 86 36 52 25 0 0 0 0
100 100 100 86 100 78 0 0 58 96 33 0 0 0 0 0 0 0 82 96 68 60 57 100 98 98 100 100 98 77 100 100 96 74 100 100 100 74 99 36 52 4 0 0
100 100 100 100 100 100 100 51 3 1 2 0 0 0 0 0 0 0 0 0 16 20 100 97 67 27 19 4 58 100 100 100 100 100 93 96 100 100 100 87 28 10 14 0
11 100 100 100 100 100 100 62 100 15 0 0 0 0 0 0 0 0 0 0 0 0 0 3 91 100 99 85 40 42 99 95 100 100 100 100 95 100 99 14 61 95 53 2
5 24 99 69 100 100 100 100 100 84 59 4 2 6 0 0 0 0 0 0 0 0 0 0 0 0 8 68 66 100 97 40 50 86 100 100 100 100 100 96 100 74 16 14
5 5 11 4 0 70 100 100 100 100 100 100 98 20 0 0 0 0 0 0 0 0 0 0 0 0 0 0 0 60 55 7 28 91 86 84 99 100 98 95 100 100 59 0
69 59 66 39 0 0 3 68 96 100 100 100 100 72 0 0 0 0 0 0 0 0 0 0 0 0 0 0 0 0 0 0 0 0 12 7 74 100 87 94 99 100 100 100
94 100 25 10 5 4 4 4 0 14 94 100 94 5 0 0 0 0 0 0 0 0 0 0 0 0 0 0 7 1 0 0 0 0 0 0 3 81 100 92 72 100 100 100
4 5 5 5 5 5 0 1 2 0 0 0 0 1 5 5 5 5 5 4 4 2 1 0 8 0 0 0 0 0 0 0 0 0 0 0 0 5 76 100 100 61 78 49
4 3 4 3 5 3 3 1 0 0 1 5 5 5 5 5 4 5 3 4 1 2 2 3 14 20 16 8 1 0 0 0 0 0 0 0 0 0 4 90 100 80 100 98
5 24 9 3 5 3 5 0 0 2 5 5 5 5 5 9 29 4 13 2 1 1 1 5 11 20 25 62 74 62 3 0 0 0 0 0 0 0 0 1 81 100 100 100
65 71 73 57 5 2 4 5 5 5 5 5 5 5 5 20 38 12 52 20 5 8 3 7 17 20 33 95 100 90 77 85 31 3 0 0 0 0 0 0 1 35 100 100
100 100 72 5 5 1 3 5 3 5 5 5 5 27 18 24 44 54 51 16 5 30 99 71 23 19 55 79 87 100 100 77 97 30 26 4 0 0 0 0 0 8 15 100
100 100 98 57 5 5 5 5 5 5 5 9 50 97 82 21 44 80 12 15 7 64 100 100 99 57 94 58 96 100 100 99 95 100 100 90 74 45 4 0 0 0 0 2
100 94 98 97 65 5 7 8 11 13 65 76 79 100 100 100 100 67 51 18 50 78 100 100 100 100 100 100 100 100 100 99 92 100 47 94 100 60 11 5 0 0 0 0
67 100 100 100 100 100 100 100 100 99 100 96 100 100 100 100 92 96 100 33 56 100 5 97 85 92 98 74 100 100 100 100 100 70 93 100 100 100 100 58 2 0 0 0
100 99 98 100 100 100 100 100 100 100 100 99 100 100 90 100 95 87 98 78 59 72 87 94 53 72 100 98 100 100 100 100 100 100 98 100 100 100 100 100 87 44 4 0
100 92 80 90 93 63 99 100 100 91 74 100 83 100 100 100 99 98 100 81 100 100 100 33 3 86 86 55 100 100 100 100 100 100 100 100 100 100 100 100 100 100 45 2
99 100 100 100 100 93 96 60 100 74 70 79 90 100 100 100 94 52 100 86 89 85 8 62 24 81 74 100 85 84 99 100 100 100 100 100 100 100 100 100 100 100 100 64
99 100 67 8 55 90 100 74 75 90 91 42 96 94 81 100 91 98 85 93 100 13 5 77 52 80 81 96 77 100 100 100 100 100 100 100 100 100 100 100 100 100 100 100
100 100 100 100 100 100 63 18 82 30 12 100 82 95 100 100 87 100 77 76 100 5 4 98 51 28 51 89 61 100 100 100 100 100 100 100 100 100 100 100 100 100 100 100
74 79 79 82 93 97 92 28 10 6 10 76 100 77 100 100 94 100 99 60 39 49 4 90 5 5 27 98 78 100 100 100 100 100 100 100 100 100 100 100 100 100 100 100
92 100 82 100 73 59 39 54 30 66 52 39 100 100 100 100 73 87 74 28 5 5 4 5 5 26 6 99 73 54 100 100 100 100 100 100 100 100 100 100 100 100 100 100
100 50 14 5 4 7 14 21 35 57 40 100 100 100 100 100 100 90 88 83 57 5 86 38 6 63 81 100 99 97 92 100 100 100 100 100 100 100 100 100 100 100 100 100
65 78 88 5 41 64 98 100 88 91 93 100 100 100 100 88 100 90 96 96 66 57 99 74 76 100 99 56 85 86 98 100 100 100 100 100 100 100 100 100 100 100 100 100
48 13 26 42 94 100 99 94 100 98 100 100 100 100 100 100 99 54 52 99 90 98 80 94 100 100 99 100 100 100 100 97 99 100 100 100 100 100 100 100 100 100 100 100

GFSNGP_prec_cloud_078.txt.gz
Cloud_Cover
100 100 62 58 2 1 0 0 100 100 33 2 40 16 23 23 91 59 24 58 96 100 90 93 100 100 100 76 100 100 100 100 84 100 100 100 7 0 0 0 0 0 0 0
100 100 68 82 100 87 4 0 100 22 34 44 0 0 9 24 0 0 0 48 31 11 28 73 83 99 100 100 100 100 100 100 7 100 100 100 100 10 6 0 0 2 2 0
89 100 100 100 32 16 5 21 100 39 54 66 2 14 8 0 0 0 0 12 2 0 9 59 51 67 93 100 100 100 100 100 100 66 99 100 100 100 86 0 0 0 28 0
78 94 71 92 98 13 10 93 92 5 99 92 17 0 2 0 0 0 0 0 0 0 0 0 5 94 100 100 100 100 100 100 100 100 100 100 100 96 12 92 41 6 5 0
100 78 93 98 64 100 100 100 10 8 46 100 6 4 0 0 0 0 0 0 0 0 0 0 15 4 45 70 100 100 100 100 100 100 100 100 98 56 18 80 95 100 6 55
100 87 97 100 97 12 93 100 64 91 7 3 1 0 0 0 0 0 0 0 0 0 0 0 0 0 28 8 40 95 5 44 7 8 85 100 100 97 100 95 98 100 100 75
35 83 100 100 98 100 100 98 34 100 94 5 3 0 0 0 0 0 0 0 0 0 0 0 0 0 0 0 0 1 70 6 3 5 7 100 96 49 45 85 99 98 98 100
59 93 100 32 100 100 100 100 100 100 88 100 83 52 0 1 0 0 0 0 0 0 0 0 0 0 0 0 0 0 1 1 0 2 56 5 97 67 89 51 96 100 100 95
100 91 10 99 66 100 100 100 100 100 100 100 100 99 11 1 6 2 0 0 0 0 0 0 0 0 0 0 0 0 0 0 0 0 0 1 24 100 90 92 28 80 100 93
41 81 99 66 94 5 83 100 100 100 100 100 100 100 100 100 91 34 52 24 3 0 0 0 0 0 0 0 0 0 0 0 0 0 0 0 0 2 16 5 46 89 71 58
14 5 5 5 5 5 5 2 61 99 100 100 100 100 100 100 100 100 100 100 100 29 1 2 16 0 4 0 0 0 0 0 0 0 0 0 0 0 0 0 0 13 58 86
47 15 72 63 32 5 5 4 4 4 3 31 98 100 100 100 100 100 100 100 100 81 6 16 21 18 13 18 4 13 0 0 0 0 0 0 0 0 0 0 0 0 1 1
99 100 100 81 90 63 6 5 5 5 5 8 5 5 5 11 92 100 19 64 6 31 55 11 22 33 31 13 69 62 74 16 1 0 0 0 0 0 0 0 0 0 0 0
5 8 48 100 99 17 5 8 5 5 6 6 7 14 8 42 98 98 100 58 0 6 17 8 2 16 3 20 67 100 100 92 37 5 0 0 0 0 0 0 0 0 0 0
3 31 5 62 100 92 31 18 13 5 5 7 5 5 25 1 1 4 68 15 0 0 27 21 5 15 4 3 85 100 100 100 100 78 40 26 34 6 0 0 0 0 0 0
53 90 5 100 100 99 100 36 42 56 22 5 5 79 93 5 5 11 8 22 3 6 0 66 58 13 0 1 12 81 64 100 100 96 93 99 68 20 100 57 0 0 0 0
56 100 97 100 100 100 100 100 94 100 74 39 84 90 5 5 5 22 100 97 11 0 4 100 96 3 0 14 16 41 51 95 100 100 100 100 100 100 100 90 32 5 0 0
41 34 46 100 100 100 100 100 100 100 100 100 48 34 64 4 5 5 94 62 0 4 46 100 40 0 21 11 13 15 32 91 82 100 100 100 100 100 100 100 98 68 32 0
97 84 100 98 100 98 62 79 84 100 100 100 100 39 61 6 12 75 98 59 0 20 41 51 6 5 43 23 23 8 5 5 38 89 90 97 100 100 100 100 100 100 100 100
91 76 96 71 76 95 78 100 94 37 18 69 99 5 83 68 3 29 53 81 2 31 9 56 3 78 24 26 16 22 18 43 48 27 100 100 100 100 100 100 100 100 100 100
47 99 63 89 87 98 100 86 87 85 100 100 61 100 79 14 4 5 90 16 73 5 5 5 5 18 5 5 8 83 100 98 99 95 83 100 100 100 100 100 100 100 100 100
44 82 72 16 59 96 72 96 100 100 56 96 100 100 96 86 100 90 12 29 9 44 23 5 5 2 4 5 58 100 69 46 100 100 100 100 100 100 100 100 100 100 100 100
94 45 24 78 80 17 32 56 42 94 20 17 39 60 4 22 100 100 100 96 62 10 5 4 5 2 5 5 48 85 100 93 95 100 100 100 100 100 100 100 100 100 100 100
100 60 100 99 99 66 70 7 94 43 52 3 3 14 28 40 99 100 100 100 100 38 5 2 5 5 5 1 32 20 93 83 59 100 100 100 100 100 100 100 100 100 100 100
2 76 61 5 3 6 13 4 7 57 33 60 57 55 40 100 100 100 100 100 76 16 18 60 5 5 5 5 6 100 100 85 70 94 100 100 100 100 100 100 100 100 100 100
99 76 55 18 26 50 44 93 100 85 100 95 87 100 100 100 100 100 100 100 92 100 41 96 5 5 4 8 96 100 100 100 100 100 100 100 100 100 100 100 100 100 100 100
99 27 16 14 49 98 82 100 100 100 100 98 100 100 100 100 100 100 100 100 97 92 100 100 25 33 10 99 100 100 100 100 100 100 100 100 100 100 100 100 100 100 100 100

GFSNGP_prec_cloud_084.txt.gz
Cloud_Cover
100 94 10 4 100 2 0 5 5 0 4 2 8 5 5 41 65 98 100 100 100 100 92 100 100 100 100 100 100 100 100 100 100 100 100 100 100 100 100 100 100 100 100 100
100 100 91 44 3 80 66 49 0 0 16 0 0 5 5 29 11 85 100 100 100 100 100 100 100 100 100 100 100 100 100 100 100 100 100 100 100 100 100 100 100 100 100 100
100 100 100 100 86 24 8 62 1 3 0 0 0 5 28 41 100 99 100 98 100 100 100 100 100 100 100 100 100 100 100 100 100 100 100 100 100 100 100 100 100 100 100 100
81 100 100 100 90 100 45 40 46 0 0 0 0 0 11 89 98 74 33 90 100 100 100 100 100 100 100 100 100 100 100 100 100 100 100 100 100 100 100 100 100 100 100 100
59 96 100 100 100 93 68 19 0 0 0 0 0 0 1 56 57 5 3 7 45 10 100 100 100 100 100 100 100 100 100 100 100 100 100 100 100 100 100 100 100 100 100 100
31 58 98 100 100 100 100 88 72 4 0 0 0 0 0 3 5 2 0 0 3 5 0 76 100 100 100 100 100 100 100 100 100 100 100 100 100 100 100 100 100 100 100 100
2 4 5 32 90 88 60 5 78 62 5 5 3 0 3 2 5 5 5 5 5 5 1 0 0 0 0 1 34 9 100 100 100 100 100 100 100 100 100 100 100 100 100 100
0 0 0 8 23 96 95 100 76 71 70 54 45 5 5 5 5 81 35 5 5 5 5 5 0 0 0 0 0 0 0 39 100 100 100 100 100 100 100 100 100 100 100 100
0 0 0 0 4 3 67 99 100 100 84 70 95 91 64 2 0 0 0 20 92 31 5 2 0 0 0 0 0 0 0 0 0 77 100 100 100 100 100 100 100 100 100 100
0 3 3 5 4 5 84 90 96 91 70 27 31 33 70 100 98 7 5 0 0 0 0 0 0 0 0 0 0 0 0 0 0 0 0 12 100 100 100 100 100 100 100 100
18 5 1 0 4 2 2 35 87 91 98 75 83 6 5 74 98 38 5 5 1 0 0 0 0 0 0 0 0 0 0 0 0 0 0 0 4 94 100 100 100 100 100 100
0 0 5 0 0 0 2 5 2 5 20 43 35 90 3 32 83 88 100 78 64 11 5 3 0 0 0 0 0 0 0 0 0 0 0 0 0 0 1 19 99 100 100 100
2 4 74 45 72 37 4 4 2 5 30 53 5 5 4 0 0 5 5 91 81 26 5 5 4 0 0 5 5 0 0 0 0 0 0 0 0 0 0 0 19 92 100 100
32 41 93 0 0 17 63 5 14 6 5 28 95 43 6 2 0 0 16 66 97 100 100 48 6 4 1 0 4 5 5 1 0 0 0 0 0 0 0 0 0 8 17 100
88 100 35 0 0 0 2 13 42 10 35 12 6 25 100 80 15 3 4 23 96 99 100 100 85 10 4 0 0 0 0 0 0 5 0 0 0 0 0 0 0 0 3 5
100 100 19 1 0 0 0 0 5 5 30 75 56 11 4 45 100 98 59 5 14 93 88 100 100 98 86 44 33 0 0 0 0 0 0 0 0 0 0 6 16 27 29 25
99 5 0 3 5 74 13 80 100 13 100 95 95 73 42 5 5 56 100 100 89 56 88 70 99 100 100 100 100 100 73 5 5 1 0 0 0 0 2 5 5 4 14 13
4 0 1 20 5 45 18 2 91 69 100 100 100 100 86 17 5 47 6 6 73 97 62 11 99 98 98 100 100 100 100 76 51 12 13 5 3 24 100 99 92 73 87 80
4 5 2 5 5 7 54 73 4 100 100 100 100 93 99 100 100 95 96 38 7 48 61 5 5 17 100 99 87 99 100 100 100 87 37 7 5 5 32 74 67 100 100 100
5 1 4 5 54 100 100 22 11 66 88 100 100 98 76 100 79 93 100 100 100 100 100 99 69 41 14 2 2 7 20 68 91 45 8 7 5 5 8 35 46 93 100 100
1 10 43 12 13 50 100 86 32 86 100 100 96 100 100 100 100 100 88 100 100 100 100 100 100 84 97 93 77 39 6 0 0 0 0 9 15 5 100 90 45 87 100 100
16 20 24 26 86 79 92 100 70 48 50 63 89 91 100 100 100 100 100 78 100 100 100 100 100 100 76 5 5 5 5 0 0 1 8 15 25 37 99 99 72 100 100 98
4 12 24 36 48 30 6 12 3 5 5 5 5 5 8 16 23 62 100 83 98 100 97 100 100 100 40 9 4 5 3 0 0 0 9 5 23 12 100 100 100 100 100 100
0 0 0 1 0 0 0 0 0 0 0 0 0 1 2 16 78 25 5 6 50 99 100 100 100 100 95 5 5 4 5 0 0 8 10 1 10 5 56 100 100 100 100 100
0 4 0 5 0 0 3 5 6 14 17 62 37 8 0 16 7 23 42 45 98 67 99 100 100 100 100 57 39 37 4 0 4 13 20 12 13 14 42 100 100 100 100 100
5 1 0 0 1 5 5 5 5 7 5 66 83 95 75 50 13 10 32 100 100 84 72 99 100 100 100 100 62 5 0 4 14 22 17 16 16 26 100 100 100 100 100 100
1 0 0 0 5 5 5 5 5 33 48 34 100 100 100 90 70 60 97 100 100 100 100 100 70 80 100 77 18 0 0 3 8 16 34 41 41 92 100 100 100 100 100 100

GFSNGP_prec_cloud_087.txt.gz
Cloud_Cover
100 99 5 1 0 0 0 1 1 0 3 11 3 0 0 0 37 95 72 100 100 100 100 100 100 100 100 100 100 100 100 100 100 100 100 93 98 96 85 100 100 100 100 100
100 100 84 84 1 0 0 2 5 5 5 5 0 0 3 3 3 79 100 98 94 100 100 100 100 100 100 100 100 100 100 100 100 100 100 91 96 56 87 100 54 57 55 100
100 100 100 100 19 2 0 0 5 5 4 5 2 0 0 1 5 95 87 97 98 100 100 100 100 100 100 100 100 100 100 100 100 100 100 100 100 100 100 79 93 100 100 100
100 100 100 96 100 50 5 5 0 0 0 3 0 0 0 0 21 57 100 100 100 100 100 100 100 100 100 100 100 100 100 100 100 100 100 100 100 100 100 100 94 54 93 100
26 100 53 96 90 100 92 53 1 0 0 0 0 3 0 8 87 96 97 100 100 100 100 100 100 100 99 100 100 100 100 100 100 100 100 100 100 100 100 100 100 100 100 100
20 36 100 100 100 100 100 71 36 5 3 5 5 19 38 2 11 51 96 100 100 100 96 100 100 78 49 44 83 97 100 100 100 100 100 100 100 100 100 100 100 100 100 100
4 2 5 75 100 100 100 29 5 92 96 100 95 72 5 5 7 10 5 31 18 6 5 90 36 92 80 5 23 100 100 100 100 100 100 100 100 100 100 100 100 100 100 100
0 0 0 0 15 77 100 100 78 33 16 70 24 22 45 20 13 91 100 90 42 5 5 5 5 5 2 97 5 64 100 100 100 100 100 100 100 100 100 100 100 96 100 100
0 0 0 0 0 0 20 100 100 70 90 85 5 97 100 92 8 42 37 100 9 6 5 5 5 5 5 4 3 5 5 98 100 100 100 100 100 100 100 100 100 100 100 100
0 0 0 0 0 0 0 1 42 88 99 67 100 100 100 100 100 99 67 48 45 61 5 5 12 35 5 5 4 3 86 47 97 100 100 100 100 100 100 100 100 100 100 100
3 0 2 0 0 0 0 0 2 5 40 55 91 100 100 100 100 100 100 90 11 2 0 0 0 0 1 5 3 1 0 72 100 100 100 100 100 100 100 100 100 100 100 100
0 0 0 0 3 0 0 0 0 0 5 5 26 90 100 100 100 100 100 99 87 42 5 1 0 0 0 0 0 0 0 0 5 98 100 100 100 100 100 100 100 100 100 100
0 0 0 3 5 5 5 0 4 2 0 0 0 2 3 7 77 86 61 14 17 6 8 5 5 5 0 0 0 0 0 0 0 0 1 64 74 28 4 0 3 37 100 100
5 0 0 0 2 5 9 6 49 50 18 29 5 6 4 0 0 0 0 52 100 36 5 5 5 5 5 0 0 0 0 0 0 0 0 0 0 0 0 3 0 0 0 13
23 19 50 46 28 53 9 0 4 53 20 34 46 50 77 5 4 0 0 5 35 100 61 13 5 5 5 5 4 1 0 0 0 0 0 0 0 0 1 0 0 0 0 0
5 54 99 85 91 0 0 0 0 0 4 100 84 35 79 98 81 11 1 5 5 22 86 91 5 7 30 27 6 3 1 4 1 0 0 0 0 0 0 0 10 4 0 0
20 5 2 0 5 14 0 3 5 4 2 7 60 80 100 100 87 97 60 3 3 5 5 5 5 5 5 5 5 5 5 4 5 5 5 0 0 0 0 0 0 5 5 5
0 0 0 0 0 1 5 3 5 3 5 44 100 100 77 95 100 97 89 100 43 8 5 5 5 5 5 4 3 0 0 4 5 6 5 5 5 4 0 0 0 5 4 5
2 6 75 71 5 5 25 63 30 5 5 5 31 99 96 100 100 99 97 93 83 100 100 82 38 22 11 5 5 5 5 4 0 5 24 21 5 5 5 0 0 5 5 5
5 3 0 3 5 5 95 92 74 44 12 5 7 99 100 100 100 100 80 99 73 100 100 100 98 61 22 34 47 13 5 5 5 5 5 4 5 6 5 6 5 5 5 5
2 6 44 100 76 24 65 100 89 93 71 14 35 80 93 100 100 100 100 100 62 100 100 100 100 100 100 100 96 63 5 5 5 5 5 5 4 13 13 5 13 99 82 72
73 100 73 4 3 34 100 86 70 26 87 54 5 23 22 25 100 100 100 100 99 100 100 100 100 100 100 100 100 67 16 8 3 0 2 12 23 18 19 6 4 55 93 100
5 3 0 0 0 0 0 1 0 0 0 1 2 2 12 30 100 100 100 100 100 100 100 100 100 100 100 100 100 82 5 5 1 1 0 9 15 15 17 5 5 6 93 100
0 0 0 0 0 4 1 0 0 0 17 20 20 1 0 3 37 88 100 100 100 100 100 100 100 100 100 100 100 89 45 20 86 48 5 6 13 14 21 11 8 1 90 100
0 0 0 0 0 0 5 5 5 1 20 28 88 81 11 4 7 7 30 43 86 98 100 100 100 100 100 100 100 100 99 74 84 85 5 12 19 25 25 20 17 11 84 100
5 1 0 0 0 4 5 5 4 11 52 98 100 92 99 55 33 43 65 93 98 97 100 100 93 66 89 99 39 74 100 100 88 32 6 14 23 25 26 20 12 44 95 100
0 0 0 0 0 5 5 5 4 5 10 79 84 100 94 80 100 100 99 100 100 100 100 100 85 94 100 85 6 5 5 52 62 41 25 39 38 25 27 20 21 73 93 100

GFSNGP_prec_cloud_093.txt.gz
Cloud_Cover
100 69 0 0 0 0 0 0 0 0 0 0 6 30 23 88 100 100 100 100 100 100 100 100 100 100 100 100 100 100 100 100 100 100 100 91 96 57 100 83 47 5 19 100
100 100 100 0 0 0 0 0 0 0 0 0 14 22 6 57 100 100 100 100 100 100 100 100 100 100 100 100 100 100 100 100 100 100 100 100 100 100 100 84 51 15 46 86
100 99 100 100 4 0 0 0 0 0 0 0 18 0 0 10 83 100 100 98 100 100 100 100 100 100 100 100 100 100 100 100 100 100 100 94 100 100 100 86 23 56 5 87
100 96 64 94 100 72 0 0 0 0 0 0 0 0 0 0 0 17 25 70 100 100 100 100 100 100 100 100 100 100 100 100 100 100 100 100 100 100 100 98 99 99 60 100
100 27 34 90 94 92 100 73 1 0 5 5 4 1 2 3 0 0 0 0 2 68 100 100 100 100 100 100 100 100 100 100 100 100 100 100 79 80 100 100 96 72 85 99
92 98 12 5 5 5 27 54 99 58 5 21 70 69 21 2 5 0 0 23 36 100 100 100 100 100 100 100 100 100 100 100 100 100 100 100 100 100 100 100 84 99 100 95
5 5 52 6 5 4 4 5 5 31 14 5 10 5 5 5 5 3 8 99 100 100 100 100 100 98 100 100 100 100 100 100 100 100 100 100 100 100 100 100 100 94 87 84
5 5 0 1 1 0 0 0 1 3 4 5 5 5 5 24 42 5 42 94 96 100 95 72 98 100 100 100 100 95 87 100 100 100 100 100 100 100 100 100 100 100 100 100
2 2 0 0 0 0 0 5 3 0 0 5 5 5 12 5 5 7 9 8 5 5 0 2 4 90 94 67 33 14 55 25 5 48 100 100 100 100 100 100 100 100 100 100
0 0 0 0 0 0 0 0 5 5 5 5 5 5 62 99 85 27 55 5 5 5 5 5 5 13 96 89 5 0 0 0 2 8 37 95 95 100 100 100 100 100 100 100
0 0 0 0 0 0 1 1 5 2 2 5 3 5 34 82 90 67 30 54 9 15 41 50 36 68 98 100 68 2 0 2 1 0 2 12 80 98 91 100 99 100 100 100
5 0 0 0 0 0 0 0 5 5 3 0 1 0 3 13 100 100 100 91 87 85 63 30 93 82 83 51 9 5 3 0 4 5 5 1 5 10 53 84 100 100 100 100
2 4 0 0 0 0 0 0 0 0 0 0 0 0 0 4 5 5 96 100 100 100 97 75 92 99 95 18 54 100 99 84 99 100 5 5 5 5 5 6 59 89 100 96
0 0 0 0 0 0 2 0 0 0 0 0 0 0 0 0 1 4 4 2 72 100 88 93 100 100 100 57 51 79 42 6 63 64 19 5 5 4 5 0 0 2 4 21
5 5 5 3 0 0 2 3 0 0 0 0 0 2 5 5 5 5 5 7 5 3 16 44 39 34 71 4 8 99 100 82 36 12 47 18 5 1 0 0 0 0 0 0
11 100 99 16 5 5 5 0 0 0 0 0 1 4 4 5 1 4 48 21 100 25 5 4 0 0 4 1 0 3 5 12 44 74 56 28 95 66 9 5 2 0 0 0
100 100 93 40 5 3 0 0 0 0 0 0 0 0 0 3 5 4 59 5 5 92 19 5 5 0 0 0 0 0 0 0 3 5 8 39 41 7 5 5 5 5 0 0
97 94 27 5 0 0 0 0 0 0 0 0 0 0 0 0 2 0 4 68 5 100 77 63 23 8 3 0 0 0 0 0 0 0 0 0 68 66 14 5 5 0 0 0
4 21 42 1 2 4 0 0 0 4 0 0 0 4 5 5 1 1 4 5 5 84 81 100 95 58 7 5 5 4 2 0 0 0 0 2 5 33 68 80 20 4 3 1
2 4 4 5 1 0 1 5 5 2 0 3 14 5 5 5 5 4 1 13 5 76 100 99 100 100 98 93 86 86 94 95 50 5 0 0 3 5 5 20 6 5 5 5
38 87 46 6 5 5 5 5 0 0 0 0 2 3 3 8 57 83 68 53 81 95 100 100 100 100 100 100 100 100 100 100 55 78 96 23 4 0 0 0 1 5 5 5
78 76 60 24 5 5 4 0 0 0 0 0 0 0 0 0 1 80 100 67 6 38 17 100 83 100 100 100 100 100 100 100 100 92 60 31 29 6 5 5 4 4 2 3
29 12 18 5 5 1 0 0 0 0 0 0 22 42 50 58 40 13 31 42 78 5 7 7 57 100 100 100 100 100 100 100 100 100 83 60 5 5 4 3 4 5 5 4
5 49 6 5 0 0 0 0 0 0 0 70 100 75 99 100 98 71 26 6 5 24 83 99 98 100 100 100 100 100 100 100 100 100 100 66 5 5 5 7 21 50 27 5
6 5 5 5 0 0 0 0 0 0 0 15 13 40 84 100 100 100 93 78 66 65 95 99 87 100 100 100 100 100 100 100 100 100 82 100 43 74 11 5 5 5 2 1
5 5 5 3 0 0 0 0 0 0 0 0 1 5 26 54 100 99 100 97 99 50 77 94 100 100 100 100 100 100 100 100 100 100 100 100 94 59 39 5 5 5 5 0
5 6 5 3 0 0 0 0 0 3 0 0 1 5 5 6 16 48 100 98 71 63 99 97 100 100 100 100 100 100 100 100 100 94 98 100 92 12 6 12 5 5 5 56

GFSNGP_prec_cloud_096.txt.gz
Cloud_Cover
100 28 1 4 0 0 0 1 54 99 94 46 6 82 100 100 100 100 100 100 100 100 100 100 100 100 100 100 100 100 100 91 100 100 100 100 100 98 100 34 15 20 72 47
100 75 81 0 0 0 0 0 0 1 64 4 0 0 15 37 48 100 100 100 100 100 100 100 100 100 100 100 100 100 100 100 100 100 69 99 100 100 100 81 96 73 85 40
99 100 100 90 0 1 0 0 0 2 0 0 0 0 2 36 50 77 100 98 99 100 100 100 100 100 100 100 100 100 100 100 100 100 100 100 77 100 100 100 74 99 78 99
100 96 100 100 92 7 0 0 0 0 0 0 0 0 24 34 47 51 88 99 85 100 100 100 100 100 100 100 100 100 100 100 100 100 100 100 99 100 100 100 91 95 39 100
90 99 100 100 95 100 82 26 0 0 0 0 0 2 5 5 36 47 60 65 100 81 100 100 100 100 100 100 100 100 100 100 100 100 100 100 100 100 87 62 45 95 47 87
100 100 100 90 100 100 100 89 49 0 0 0 0 1 0 0 11 27 32 60 87 72 88 100 100 100 100 100 100 100 100 100 100 100 100 100 100 100 100 100 100 100 100 96
66 98 25 5 5 55 100 42 42 33 4 0 3 8 9 36 35 7 17 36 15 9 47 98 100 100 100 100 100 100 100 100 100 100 100 100 97 100 100 96 99 25 100 100
4 34 20 26 5 5 28 94 33 13 5 5 5 4 0 29 15 0 0 0 7 81 100 100 68 97 100 100 100 100 100 100 100 100 100 100 100 100 84 100 100 100 71 97
0 5 53 10 5 5 5 5 7 29 5 5 5 5 5 5 4 5 7 28 93 100 100 100 100 100 75 23 99 100 100 100 100 100 100 100 64 87 100 94 100 100 100 100
0 0 3 5 5 5 5 5 5 1 1 0 0 0 5 5 5 3 15 64 86 10 2 0 0 36 100 100 100 100 100 100 87 100 100 95 50 36 23 87 99 47 79 100
0 0 0 0 0 0 0 0 0 3 5 4 4 0 0 1 4 3 3 5 5 0 0 0 0 2 5 5 3 5 5 62 88 11 13 0 9 4 18 59 35 5 92 100
0 0 0 0 0 0 1 4 5 1 0 0 0 0 0 3 4 2 1 1 5 5 5 5 5 5 5 65 94 64 64 97 99 99 99 50 2 0 0 0 0 1 2 2
1 2 0 0 0 0 0 0 0 1 4 0 0 0 0 0 2 24 14 1 69 18 35 23 75 21 5 27 58 81 98 99 99 91 100 100 30 4 0 3 5 5 1 0
0 0 0 0 3 0 0 0 0 0 0 0 0 0 0 0 0 0 1 3 5 5 5 14 77 100 92 64 54 85 91 97 98 99 99 97 30 5 5 5 33 35 5 4
0 0 1 1 2 5 0 0 0 0 0 0 0 0 0 0 0 0 0 0 0 2 0 1 28 0 0 17 88 97 100 97 86 82 46 58 97 100 87 94 76 86 24 11
5 5 5 5 39 47 7 5 5 4 2 0 0 0 0 0 0 2 5 0 8 5 5 5 5 5 1 0 0 10 67 82 86 73 44 83 64 72 83 100 100 44 85 9
22 99 100 100 100 100 100 90 10 0 0 0 0 0 0 0 0 0 1 2 1 5 5 5 5 5 5 5 5 0 0 0 1 4 5 5 5 5 5 28 88 77 58 78
100 100 84 37 21 5 3 2 0 0 0 0 0 0 0 0 0 0 0 2 7 20 22 55 5 14 5 5 5 5 3 0 0 0 0 0 0 0 0 4 8 67 81 80
54 5 5 5 5 1 0 2 0 0 0 0 0 0 13 3 3 6 2 39 94 85 31 75 63 10 56 33 24 8 5 5 0 0 0 0 0 0 2 0 1 0 0 2
5 2 4 5 1 4 0 0 0 5 5 0 0 0 2 25 100 92 4 9 14 81 100 97 71 63 48 71 32 65 5 5 5 5 2 3 3 5 5 1 8 4 2 0
4 4 5 6 5 5 5 5 4 1 0 0 0 0 0 0 0 2 0 0 30 5 5 5 17 7 49 100 95 100 87 9 22 5 5 5 11 5 5 5 5 5 5 5
5 18 82 79 49 5 5 5 0 0 0 0 0 0 1 0 0 0 3 5 1 23 6 29 68 84 89 100 100 100 100 72 46 90 38 29 85 100 54 56 34 5 5 5
5 25 20 6 5 5 5 1 0 0 1 16 17 24 26 62 67 10 4 34 41 37 11 13 23 6 37 100 100 100 100 100 100 69 100 100 93 85 100 64 13 11 13 11
59 30 1 5 5 3 1 0 0 0 0 13 28 99 70 95 51 98 83 53 10 64 39 71 40 6 38 100 100 100 100 100 100 100 100 100 86 100 100 87 47 11 23 42
5 5 0 1 5 5 5 1 2 2 2 19 30 39 82 20 82 70 64 69 44 46 68 38 40 100 100 100 100 99 95 100 100 100 100 100 100 100 100 99 93 92 90 73
4 0 3 4 5 5 5 3 5 5 4 70 67 26 42 96 16 71 55 52 95 77 57 77 89 98 83 100 100 100 100 100 100 100 100 100 100 100 100 100 92 95 97 77
6 2 4 5 5 5 4 5 11 73 62 58 79 80 69 92 88 11 27 100 100 94 80 92 100 100 100 100 100 100 100 100 100 100 100 100 100 100 100 100 94 88 18 6

GFSNGP_prec_cloud_102.txt.gz
Cloud_Cover
97 34 82 10 58 0 5 0 30 93 98 3 46 99 95 95 100 100 100 100 100 100 100 100 100 100 100 23 5 13 99 100 100 99 100 84 99 94 100 100 100 100 100 100
0 4 4 6 70 2 3 5 81 4 1 5 3 100 98 100 100 100 100 100 100 100 100 100 100 100 100 100 100 47 23 100 92 67 85 99 98 99 100 100 100 100 100 100
17 81 74 100 100 100 44 0 18 100 16 5 2 100 100 98 42 100 100 100 100 100 100 100 100 100 100 100 100 78 16 54 100 86 100 100 99 80 100 96 62 100 100 100
73 76 24 83 5 20 60 89 97 37 0 0 4 79 100 100 90 100 100 100 100 100 100 100 100 100 100 100 100 100 100 99 100 72 100 83 100 100 98 97 69 100 100 95
100 100 92 96 93 100 100 100 95 15 11 100 70 100 100 100 100 100 100 100 100 100 100 100 100 100 100 100 100 100 100 100 100 100 100 100 99 99 100 100 100 100 65 53
100 100 100 100 100 99 61 100 72 76 94 100 56 100 100 100 100 100 100 100 98 100 100 100 100 100 100 100 100 100 100 100 100 100 100 100 100 100 100 99 100 31 94 31
100 100 100 100 100 100 100 80 100 100 100 17 1 20 100 94 78 80 36 52 94 100 100 100 100 100 100 100 100 100 100 100 100 100 100 100 100 100 100 100 100 100 100 92
100 100 100 100 100 100 91 97 69 100 100 51 5 73 100 3 1 1 23 5 40 60 100 100 100 100 100 100 100 100 100 100 98 100 100 100 99 100 100 100 86 100 98 65
100 100 100 100 100 100 100 100 100 44 24 15 5 13 44 19 2 64 80 97 62 23 7 100 99 96 98 90 100 100 100 100 100 100 100 100 100 100 100 100 100 100 100 99
92 95 53 100 100 100 100 100 100 27 5 11 60 5 29 52 45 100 100 67 20 0 0 0 1 21 24 34 57 100 100 100 100 100 100 100 100 100 100 100 100 99 91 11
5 60 5 4 71 100 100 100 94 7 0 4 30 16 98 80 100 100 100 100 34 30 0 0 0 0 14 33 25 35 23 72 100 100 100 100 99 100 100 96 99 100 100 14
3 26 5 3 3 5 5 68 11 5 1 0 1 20 53 100 100 100 100 100 100 2 0 0 14 15 2 11 9 18 44 99 93 67 57 76 93 100 83 99 91 100 70 5
5 4 1 2 5 3 5 5 3 3 0 0 0 2 5 78 100 100 100 100 28 62 75 4 0 0 0 0 0 5 4 3 1 1 0 5 5 24 61 63 95 5 5 10
0 0 1 5 10 3 2 6 4 4 4 1 3 4 5 89 100 100 100 100 100 100 100 43 2 4 1 5 5 9 8 12 16 5 5 5 5 5 4 21 31 5 5 50
0 0 1 3 3 39 8 12 4 9 36 22 6 4 12 25 86 96 60 2 82 100 100 100 15 6 5 3 5 0 5 6 52 11 5 5 5 5 5 2 2 6 91 5
0 0 1 13 36 41 14 19 20 44 57 18 26 72 22 11 32 8 47 100 96 20 26 97 100 93 60 0 0 1 0 0 0 1 0 0 1 3 5 5 5 5 13 58
10 44 35 93 97 99 100 100 95 44 41 5 6 6 5 5 35 28 5 5 29 56 100 10 76 4 100 0 0 0 0 0 0 0 0 0 0 0 0 0 0 3 5 11
48 12 88 100 100 100 100 100 24 31 56 86 18 3 6 7 5 6 4 4 2 17 21 5 58 100 5 100 13 3 3 1 0 0 0 0 0 0 0 0 0 0 0 0
20 59 87 79 96 98 85 100 91 78 67 14 0 9 7 0 9 44 12 2 2 14 48 44 21 56 3 28 100 68 90 76 19 5 5 4 1 0 0 0 0 0 0 0
19 96 100 100 62 99 100 84 93 73 6 34 0 0 0 0 0 2 4 0 0 0 2 70 42 92 93 2 9 100 58 100 100 59 5 5 5 5 5 5 1 5 2 0
47 60 95 96 100 78 8 83 44 2 5 0 0 0 5 4 4 2 0 4 4 5 5 36 100 82 7 96 99 97 68 96 100 100 92 10 58 12 5 5 5 5 5 5
48 57 83 98 82 66 14 0 3 4 1 0 0 0 0 1 5 5 3 4 2 3 2 1 68 66 36 63 0 3 3 100 98 100 100 81 94 54 44 85 55 30 5 6
28 86 94 100 100 100 69 1 1 0 4 3 4 1 0 1 9 12 40 4 0 0 1 0 0 17 7 3 0 0 16 87 98 100 100 100 100 100 100 100 100 100 100 66
6 100 100 100 82 30 6 5 5 1 1 4 4 0 5 99 12 53 6 3 0 0 0 0 2 5 5 35 7 5 1 34 93 38 100 100 100 100 100 93 95 100 100 100
30 46 14 40 80 43 100 48 5 35 4 2 8 5 51 5 12 6 1 1 0 0 1 8 44 20 40 5 45 79 77 54 92 100 59 88 100 100 100 100 100 100 100 100
5 5 37 5 7 46 97 100 5 63 68 6 55 43 7 65 86 9 2 2 2 0 16 25 20 99 100 100 100 100 100 100 100 100 84 50 93 100 100 100 100 100 100 100
97 8 100 100 68 10 94 100 72 5 6 33 23 3 15 72 69 10 7 85 7 10 4 31 20 5 56 100 100 100 100 94 82 92 100 100 100 100 100 100 100 100 100 100

GFSNGP_prec_cloud_105.txt.gz
Cloud_Cover
100 99 100 12 11 80 2 0 100 100 100 82 88 79 6 100 100 100 100 100 100 100 100 100 100 100 100 100 100 100 100 96 60 24 79 76 99 100 100 58 100 100 90 71
5 50 72 20 100 35 2 0 100 100 100 100 100 98 83 100 100 100 100 100 100 100 100 100 100 100 100 100 100 100 100 88 82 65 83 88 100 100 100 38 5 7 40 78
7 6 8 100 32 80 5 2 84 69 99 76 100 100 100 100 100 100 100 100 100 100 100 100 100 100 100 100 100 100 100 100 100 13 10 48 99 100 100 50 22 66 100 62
21 86 100 37 100 100 28 8 0 0 6 100 100 100 100 100 100 100 100 100 100 100 100 100 100 100 100 100 100 100 100 100 100 74 100 43 99 100 100 72 98 64 87 100
41 8 58 60 99 27 5 5 0 0 0 2 56 100 100 100 100 81 94 100 100 100 100 100 100 100 100 100 100 100 100 100 100 100 100 100 97 85 99 74 46 67 48 98
5 94 84 88 75 100 77 72 23 7 93 17 26 37 34 96 100 100 100 31 8 98 100 100 100 100 100 100 100 100 100 100 100 100 100 100 100 100 100 99 99 100 66 86
5 64 99 99 98 100 100 73 68 95 97 91 100 100 86 24 100 100 94 100 90 94 100 100 100 100 100 100 100 100 100 100 100 100 100 100 100 100 100 100 100 100 40 5
48 100 100 100 100 88 100 100 100 6 5 78 65 100 100 100 100 100 100 100 100 95 100 100 100 97 100 100 100 100 100 100 100 100 100 100 100 100 100 100 100 100 97 40
100 100 100 100 100 100 100 100 92 86 100 100 100 100 100 100 100 100 54 52 71 100 93 100 100 100 100 100 100 100 100 100 100 100 100 100 100 100 100 100 100 100 100 100
100 100 100 100 100 100 100 100 100 32 99 66 100 100 100 100 100 100 100 42 3 35 18 3 76 39 19 2 100 100 100 100 100 91 100 100 100 100 98 100 100 100 100 96
100 100 100 100 100 100 100 100 100 100 65 66 68 96 100 100 100 98 100 92 13 0 0 4 4 1 5 9 3 55 96 100 100 100 100 100 100 100 100 100 100 100 100 100
26 100 100 100 100 100 100 100 54 30 8 0 0 84 33 72 66 37 96 100 62 40 0 0 1 16 12 14 54 9 4 40 34 17 34 86 91 47 53 96 94 88 100 100
0 1 87 100 100 20 96 100 98 61 66 4 4 0 30 6 90 58 86 51 100 76 4 0 0 0 0 0 1 0 0 1 0 0 2 5 4 26 96 68 16 65 38 65
0 0 1 0 2 57 94 100 100 100 100 100 44 18 56 95 85 97 100 100 100 97 84 45 4 5 5 5 5 5 5 2 5 5 5 5 5 5 5 6 30 5 5 5
0 0 0 0 4 2 4 0 2 5 4 11 53 97 91 51 21 100 94 100 33 1 88 100 97 43 2 11 31 24 11 7 23 9 5 5 5 0 2 3 4 4 5 4
0 0 0 3 37 12 5 5 5 61 100 99 16 1 0 0 0 1 2 4 18 80 42 4 5 1 0 0 0 2 1 0 0 1 0 1 0 0 0 0 0 0 0 1
0 0 0 3 52 98 100 10 6 56 97 11 5 0 0 0 0 0 1 18 30 34 16 0 36 1 5 35 11 23 5 28 0 0 0 0 0 0 0 0 0 0 0 0
7 41 2 3 7 71 100 100 59 80 65 8 5 1 1 1 1 1 2 5 1 0 15 64 35 1 37 16 11 69 52 11 7 65 3 0 0 0 0 0 0 0 0 0
8 100 38 51 16 7 22 14 100 97 8 1 1 0 0 0 0 0 0 0 0 0 0 0 2 13 5 1 0 2 74 90 100 100 79 99 12 1 2 0 0 0 0 0
100 78 0 0 5 10 66 10 24 5 5 0 0 0 0 0 0 0 0 0 0 0 0 0 0 0 0 0 2 9 48 21 96 100 89 89 99 12 5 5 3 1 0 0
36 47 1 6 6 4 7 45 7 5 4 0 0 1 4 0 0 0 0 0 0 0 0 0 0 0 0 11 19 3 3 4 33 66 76 100 20 28 5 5 37 5 5 1
0 0 6 100 78 48 89 45 54 1 0 0 0 0 0 0 0 0 4 4 5 0 0 0 0 0 2 2 28 12 2 4 36 65 100 97 100 100 26 77 29 33 67 31
0 0 5 58 97 100 36 2 39 94 3 2 0 0 0 0 5 4 1 0 0 0 0 0 0 0 0 2 4 5 2 2 21 28 94 100 100 89 100 82 84 82 27 84
5 5 1 64 95 80 79 6 2 10 11 5 5 4 0 2 4 0 0 0 0 0 0 0 0 0 0 0 3 5 0 1 16 25 58 98 100 100 100 100 100 100 100 100
5 3 5 100 100 100 90 5 5 5 5 5 5 49 18 39 5 5 0 0 0 0 0 0 0 0 0 0 5 36 91 98 96 55 100 32 13 15 90 100 100 100 100 100
5 25 100 100 100 100 79 5 5 5 5 5 5 84 100 100 100 94 6 0 3 0 0 0 0 0 0 0 2 28 99 100 100 100 100 100 100 62 45 68 100 100 100 100
5 34 100 100 100 100 81 52 5 26 11 5 11 86 100 100 100 100 15 4 6 0 0 0 0 3 0 0 22 100 99 82 98 100 100 100 89 90 100 100 95 94 100 100